星链-5860 (STARLINK-5860 )

导读

STARLINK-5860是美国SpaceX公司“星链”低轨卫星互联网星座的成员,于2023年6月22日由猎鹰9号运载火箭发射升空。星链计划旨在通过大规模低轨卫星组网,为全球提供高速低延迟宽带服务。该卫星属于星链星座扩容的一部分,运行在近地轨道,配备相控阵天线与霍尔推进器,支持自主轨道机动和避碰,服务全球互联网接入,助力星链实现全球覆盖的目标。

基本信息
目录编号:
57052
目录名称:
STARLINK-5860
国际标识:
2023-088E
轨道中心:
EARTH
卫星名称:
星链-5860
卫星全名:
星链-5860 (STARLINK-5860 )
卫星状态:
在轨 (已飞行1170 天)
发射日期:
2023-06-22 UTC
国别 :
美国 (US)
星等 :
--
轨道信息
数据来源 国际轨道数据
星历时间: 2026-09-04T13:53:40+0800
8小时前
查看轨道信息
半长轴: 6861.183km
偏心率: 0.0000786
轨道倾角: 43.001°
近地点辐角 225.169°
升交点赤经 181.986°
平近点角 134.910°
近地点: 482.506km
远地点: 483.586km
周期: 94.267分钟
每日圈数: 15.275812
详细信息
固有亮度:
5
最大亮度:
2.4
卫星平台:
Starlink v1.5
覆盖范围:
全球
运营商:
太空探索技术公司
运营商所在国:
美国
制造商(研发单位):
太空探索技术公司
制造商所在国:
美国
使用方式:
暂无
卫星简介
星链(Starlink)计划是由太空探索技术公司(SpaceX)提出的一个巨型低轨卫星互联网星座项目,计划在2019年至2024年间在太空搭建由约1.2万颗卫星组成的“星链”网络,其中1584颗将部署在地球上空550千米处的近地轨道,并从2020年开始工作。该卫星仍在工作。
2D轨道图
3D轨道图
轨道高度分析图
轨道倾角分析图
轨道综合分析图
查看轨道综合分析图